ISS (ZARYA) 1 25544U 98067A 26255.14337336 .00004988 00000+0 98350-4 0 9997 2 25544 51.6305 229.7248 0004961 131.0693 229.0724 15.49086104585236 POISK 1 36086U 09060A 26255.14337336 .00004988 00000+0 98350-4 0 9995 2 36086 51.6305 229.7248 0004961 131.0693 229.0724 15.49086104586083 CSS (TIANHE) 1 48274U 21035A 26255.15172565 .00017671 00000+0 21733-3 0 9998 2 48274 41.4683 154.0266 0002631 272.9241 87.1296 15.59839597306740 ISS (NAUKA) 1 49044U 21066A 26255.14337336 .00004988 00000+0 98350-4 0 9993 2 49044 51.6305 229.7248 0004961 131.0693 229.0724 15.49086104586126 FREGAT DEB 1 49271U 11037PF 26254.96744920 .00016685 00000+0 23640-1 0 9996 2 49271 51.6436 100.5439 0940641 115.1330 255.0053 12.44351774235840 CSS (WENTIAN) 1 53239U 22085A 26254.89562245 .00017425 00000+0 21444-3 0 9995 2 53239 41.4684 155.5829 0002606 272.3198 87.7342 15.59830354288239 CSS (MENGTIAN) 1 54216U 22143A 26255.15172565 .00017671 00000+0 21733-3 0 9992 2 54216 41.4683 154.0266 0002631 272.9241 87.1296 15.59839597307621 HRC MONOBLOCK CAMERA 1 66052U 98067XR 26254.99872935 .00200026 26303-4 56260-3 0 9990 2 66052 51.6152 187.9482 0004930 121.1727 238.9764 15.93120036051743 SZ-21 MODULE 1 66515U 25246C 26255.04223198 .00064969 00000+0 26718-3 0 9991 2 66515 41.4697 123.1786 0012068 281.0811 78.8679 15.84902372047481 DUPLEX 1 66906U 98067XS 26254.97818316 .00046896 00000+0 39561-3 0 9998 2 66906 51.6245 209.0602 0004430 124.2774 235.8643 15.69301116044258 KNACKSAT-2 1 67683U 98067XZ 26254.29247161 .00057179 00000+0 49913-3 0 9998 2 67683 51.6239 218.7617 0007834 147.0851 213.0634 15.68357883033759 GXIBA-1 1 67685U 98067YB 26254.91938441 .00083313 00000+0 61552-3 0 9999 2 67685 51.6227 213.1648 0008582 146.7135 213.4404 15.72205424033884 UITMSAT-2 1 67686U 98067YC 26253.59366183 .00179058 00000+0 83074-3 0 9996 2 67686 51.6208 214.7641 0007840 114.8320 245.3498 15.82332066033748 LEOPARD 1 67687U 98067YD 26254.90347659 .00142785 00000+0 10037-2 0 9995 2 67687 51.6252 213.8470 0007797 125.5822 234.5904 15.73146341033791 HMU-SAT2 1 67688U 98067YE 26254.31334324 .00117037 00000+0 69660-3 0 9995 2 67688 51.6244 213.6175 0007749 117.7047 242.4741 15.77060963033743 CREW DRAGON 12 1 67796U 26031A 26254.62728022 .00005127 00000+0 10088-3 0 9999 2 67796 51.6304 232.2787 0004958 129.1564 230.9865 15.49080967586080 CYGNUS NG-24 1 68689U 26079A 26254.62728022 .00005127 00000+0 10088-3 0 9993 2 68689 51.6304 232.2787 0004958 129.1564 230.9865 15.49080967586206 PROGRESS-MS 34 1 68837U 26093A 26254.62728022 .00005127 00000+0 10088-3 0 9994 2 68837 51.6304 232.2787 0004958 129.1564 230.9865 15.49080967586245 TIANZHOU-10 1 69049U 26102A 26254.89562245 .00017425 00000+0 21444-3 0 9995 2 69049 41.4684 155.5829 0002606 272.3198 87.7342 15.59830354307484 SHENZHOU-23 (SZ-23) 1 69180U 26113A 26254.89562245 .00017425 00000+0 21444-3 0 9993 2 69180 41.4684 155.5829 0002606 272.3198 87.7342 15.59830354307266 SOYUZ-MS 29 1 A0057U 26162A 26254.62728022 .00005127 00000+0 10088-3 0 9991 2 A0057 51.6304 232.2787 0004958 129.1564 230.9865 15.49080967586256